This demonstration page uses our WeatherBlox Daily Observations layout. Learn more.

Left ArrowRight Arrow

34.02893, -84.19858

Hourly Observations for May 27, 2015

Temp ( °F °C ) Dew Point ( °F °C ) Humidity (%) Winds ( mph kmh ) Pressure ( in mb ) Visibility ( mi km ) Precip ( " mm )
12:13 am 00:13 Mostly Clear with Mist and Fog 65 18.3 64 17.8 97 97 Calm 30.24 1024 6 10 0.00 0.00
12:53 am 00:53 Mostly Clear with Mist and Fog 64 17.8 63 17.2 96 96 Calm 30.19 1022 6 10 0.00 0.00
1:08 am 01:08 Mostly Clear with Mist and Fog 64 18 64 18 100 100 Calm 30.24 1024 4 6 0.00 0.00
1:25 am 01:25 Mostly Cloudy with Mist and Fog 64 17.8 64 17.8 100 100 Calm 30.24 1024 4 6 0.00 0.00
1:42 am 01:42 Cloudy with Mist and Fog 64 18 64 18 100 100 Calm 30.24 1024 2 3 0.00 0.00
1:49 am 01:49 Cloudy with Mist and Fog 64 17.8 64 17.8 100 100 Calm 30.19 1022 1 1 0.00 0.00
1:56 am 01:56 Cloudy with Fog 64 18 64 18 100 100 Calm 30.24 1024 1 1 0.00 0.00
2:28 am 02:28 Mostly Cloudy with Fog 64 17.8 63 17.2 96 96 Calm 30.18 1022 1 1 0.00 0.00
2:32 am 02:32 Mostly Cloudy with Mist and Fog 64 18 64 18 100 100 Calm 30.18 1022 1 1 0.00 0.00
2:40 am 02:40 Cloudy with Mist and Fog 64 18 64 18 100 100 Calm 30.18 1022 1 1 0.00 0.00
2:53 am 02:53 Mostly Cloudy with Fog 64 17.8 64 17.8 100 100 ESE 3 6 30.17 1022 0 0 0.00 0.00
3:05 am 03:05 Cloudy with Mist and Fog 64 17.8 64 17.8 100 100 E 5 7 30.18 1022 1 2 0.00 0.00
3:30 am 03:30 Cloudy with Mist and Fog 64 18 64 18 100 100 E 3 6 30.18 1022 3 5 0.00 0.00
3:43 am 03:43 Cloudy with Mist and Fog 64 17.8 64 17.8 100 100 Calm 30.18 1022 4 6 0.00 0.00
3:53 am 03:53 Cloudy with Mist and Fog 64 17.8 64 17.8 100 100 Calm 30.17 1022 5 8 0.00 0.00
4:38 am 04:38 Cloudy with Mist and Fog 64 18 64 18 100 100 Calm 30.18 1022 5 8 0.00 0.00
4:49 am 04:49 Cloudy with Mist and Fog 64 18 64 18 100 100 Calm 30.18 1022 4 6 0.00 0.00
4:53 am 04:53 Cloudy with Mist and Fog 65 18.3 65 18.3 100 100 Calm 30.18 1022 3 5 0.00 0.00
5:53 am 05:53 Cloudy 65 18.3 65 18.3 100 100 Calm 30.19 1023 7 11 0.00 0.00
6:53 am 06:53 Cloudy with Mist and Fog 66 18.9 65 18.3 96 96 Calm 30.22 1024 4 6 0.00 0.00
7:53 am 07:53 Cloudy with Mist and Fog 66 18.9 65 18.3 96 96 Calm 30.23 1024 4 6 0.00 0.00
8:53 am 08:53 Cloudy with Mist and Fog 68 20 65 18.3 90 90 Calm 30.23 1024 6 10 0.00 0.00
9:53 am 09:53 Cloudy 70 21.1 65 18.3 84 84 Calm 30.23 1024 8 13 0.00 0.00
10:53 am 10:53 Mostly Cloudy 73 22.8 66 18.9 79 79 Calm 30.22 1023 8 13 0.00 0.00
11:53 am 11:53 Cloudy 75 23.9 67 19.4 76 76 SSW 5 7 30.22 1024 8 13 0.00 0.00
12:50 pm 12:50 Mostly Cloudy 79 26 68 20 70 70 VRB 3 6 30.24 1024 8 13 0.00 0.00
12:53 pm 12:53 Mostly Cloudy 77 25 67 19.4 71 71 Calm 30.23 1024 8 13 0.00 0.00
1:15 pm 13:15 Cloudy 77 25 67 19.4 71 71 Calm 30.21 1023 8 13 0.00 0.00
1:53 pm 13:53 Mostly Cloudy 79 26.1 67 19.4 67 67 WSW 5 7 30.20 1023 7 11 0.00 0.00
2:26 pm 14:26 Mostly Cloudy 79 26.1 66 18.9 65 65 Calm 30.21 1023 8 13 0.00 0.00
2:53 pm 14:53 Mostly Cloudy 81 27.2 68 20 65 65 VRB 3 6 30.18 1022 8 13 0.00 0.00
3:53 pm 15:53 Mostly Cloudy 81 27.2 66 18.9 61 61 Calm 30.16 1021 8 13 0.00 0.00
4:53 pm 16:53 Mostly Cloudy 80 26.7 66 18.9 62 62 SE 3 6 30.15 1021 8 13 0.00 0.00
5:53 pm 17:53 Mostly Cloudy 80 26.7 66 18.9 62 62 SE 5 7 30.12 1020 8 13 0.00 0.00
6:53 pm 18:53 Partly Cloudy 80 26.7 66 18.9 62 62 VRB 3 6 30.11 1020 9 14 0.00 0.00
7:53 pm 19:53 Sunny 77 25 67 19.4 71 71 Calm 30.14 1021 9 14 0.00 0.00
8:53 pm 20:53 Clear 73 22.8 67 19.4 81 81 Calm 30.15 1021 9 14 0.00 0.00
9:53 pm 21:53 Clear 72 22.2 67 19.4 84 84 Calm 30.18 1022 9 14 0.00 0.00
10:53 pm 22:53 Partly Cloudy 72 22.2 68 20 87 87 Calm 30.18 1022 9 14 0.00 0.00
11:53 pm 23:53 Cloudy 73 22.8 68 20 84 84 Calm 30.19 1022 9 14 0.00 0.00

Powered by AerisWeather